Date,TemperatureHighF,TemperatureAvgF,TemperatureLowF,DewpointHighF,DewpointAvgF,DewpointLowF,HumidityHigh,HumidityAvg,HumidityLow,PressureMaxIn,PressureMinIn,WindSpeedMaxMPH,WindSpeedAvgMPH,GustSpeedMaxMPH,PrecipitationSumIn
2012-1-1,52.7,42.5,29.9,46.8,39.6,29.4,100,90,68,30.10,29.66,8,2,20,0.19
2012-1-2,46.7,37.5,30.4,45.9,25.3,20.3,97,62,49,29.80,29.65,20,6,23,0.00
2012-1-3,30.7,23.9,13.4,23.9,11.7,2.0,77,59,47,30.13,29.79,22,10,22,0.00
2012-1-4,25.1,18.9,11.6,14.3,7.6,2.1,75,62,43,30.23,29.97,14,5,14,0.00
2012-1-5,40.4,30.9,20.1,26.4,21.5,13.7,79,68,57,29.97,29.82,22,3,22,0.00
2012-1-6,50.9,37.8,25.5,34.6,29.5,22.9,92,73,52,29.96,29.73,13,2,13,0.00
2012-1-7,60.9,43.7,26.7,42.8,34.2,25.5,97,72,46,29.97,29.70,18,3,18,0.00
2012-1-8,42.9,37.8,26.7,31.7,26.8,19.6,86,65,55,30.32,29.96,16,5,16,0.00
2012-1-9,41.6,31.6,25.3,28.6,22.4,19.4,87,70,46,30.32,29.99,9,2,9,0.00
2012-1-10,45.7,35.9,24.0,32.8,27.6,20.6,91,73,60,30.00,29.85,14,3,14,0.00
2012-1-11,46.6,35.5,22.9,39.1,29.5,21.4,96,80,56,30.10,29.86,18,4,18,0.04
2012-1-12,44.2,41.2,38.7,43.4,40.2,38.4,100,96,93,29.85,29.39,25,7,25,1.01
2012-1-13,47.7,35.0,27.1,47.7,29.3,16.2,100,80,58,29.78,29.23,27,10,27,0.05
2012-1-14,32.1,28.0,23.6,20.9,18.5,13.2,73,67,59,30.08,29.77,17,7,23,0.00
2012-1-15,23.5,18.0,13.0,13.1,3.7,-0.9,68,54,41,30.59,30.08,10,4,21,0.00
2012-1-16,34.4,22.4,8.4,30.9,12.8,2.1,92,67,46,30.62,30.17,9,3,20,0.05
2012-1-17,45.4,38.7,33.2,44.9,37.4,31.0,98,95,88,30.15,29.53,6,1,12,0.12
2012-1-18,49.1,34.6,20.7,46.7,22.6,8.4,99,62,48,30.18,29.54,13,4,29,0.00
2012-1-19,35.1,25.2,14.9,28.3,17.2,8.5,85,72,59,30.27,29.93,6,2,15,0.00
2012-1-20,35.0,27.7,22.5,26.0,15.3,10.0,77,60,49,30.30,29.93,12,3,23,0.00
2012-1-21,25.4,22.0,16.7,22.5,17.6,10.8,98,84,56,30.33,30.01,7,2,13,0.38
2012-1-22,31.3,22.9,11.0,28.9,18.3,8.1,92,82,70,30.56,30.34,7,2,12,0.00
2012-1-23,50.9,42.1,31.0,50.9,41.2,27.3,100,97,86,30.45,29.88,12,3,12,0.28
2012-1-24,53.6,46.0,40.5,50.4,40.7,33.9,100,83,66,30.11,29.88,17,5,17,0.00
2012-1-25,41.9,37.9,34.4,34.2,29.2,27.6,78,71,64,30.31,30.11,16,6,16,0.00
2012-1-26,39.1,35.6,33.7,38.5,30.8,27.9,98,83,72,30.23,29.84,7,2,8,0.10
2012-1-27,55.2,47.0,39.3,55.2,44.3,32.8,100,91,69,29.83,29.33,13,3,29,0.24
2012-1-28,46.8,40.2,32.0,33.7,30.7,19.5,90,69,44,30.03,29.82,12,3,21,0.00
2012-1-29,42.3,36.1,29.6,23.6,20.9,16.8,71,54,45,30.18,30.01,15,3,20,0.00
2012-1-30,38.8,34.3,28.7,26.1,21.4,17.5,75,60,46,30.30,29.99,21,5,21,0.00
2012-1-31,58.2,45.0,30.9,36.9,31.3,22.6,78,60,43,30.25,30.00,16,4,16,0.00
2012-2-1,60.4,52.2,44.5,48.4,41.6,34.3,91,68,56,30.01,29.86,23,5,23,0.04
2012-2-2,46.8,38.5,31.7,37.5,32.1,24.9,93,78,66,30.24,29.98,9,2,16,0.00
2012-2-3,42.4,33.9,26.6,25.9,23.0,19.8,81,65,49,30.45,30.24,8,2,16,0.00
2012-2-4,46.1,37.9,27.8,31.1,27.4,23.6,87,66,53,30.33,30.11,6,2,12,0.00
2012-2-5,37.8,30.9,24.4,23.2,21.6,19.6,84,69,54,30.18,30.10,6,1,14,0.00
2012-2-6,51.7,37.7,21.5,32.9,27.0,18.8,91,67,45,30.16,29.94,8,2,17,0.00
2012-2-7,47.6,39.6,28.7,33.2,29.7,24.6,88,68,55,30.24,29.94,9,2,20,0.00
2012-2-8,36.1,32.0,27.3,28.8,20.0,14.3,91,62,43,30.33,30.09,5,1,8,0.00
2012-2-9,44.6,32.4,24.6,28.3,23.6,21.3,94,72,44,30.14,30.06,7,1,16,0.00
2012-2-10,45.4,32.7,24.0,29.0,24.5,19.9,89,73,49,30.14,29.91,9,1,16,0.00
2012-2-11,37.6,34.6,28.8,33.3,28.8,20.9,96,80,66,29.91,29.56,8,2,20,0.02
2012-2-12,31.5,24.8,18.4,23.4,13.2,2.1,89,61,46,29.96,29.67,12,5,26,0.00
2012-2-13,44.1,34.0,24.8,23.2,20.4,15.7,70,58,41,30.03,29.91,9,3,17,0.00
2012-2-14,45.9,38.6,32.1,37.0,25.0,20.3,92,59,40,30.11,30.01,7,1,10,0.01
2012-2-15,44.3,39.9,33.7,40.2,37.1,31.4,96,90,79,30.27,30.07,3,0,9,0.00
2012-2-16,40.6,35.4,27.0,40.3,33.6,25.2,99,93,78,30.30,30.02,5,1,9,0.09
2012-2-17,49.6,42.2,31.0,42.6,34.7,25.8,99,77,48,30.02,29.91,10,2,18,0.02
2012-2-18,46.8,38.5,32.6,36.6,28.5,24.2,94,69,46,30.08,29.88,7,2,15,0.05
2012-2-19,45.5,36.4,29.8,31.3,26.3,23.2,93,68,46,30.08,29.96,7,2,18,0.00
2012-2-20,44.4,33.6,24.7,23.4,21.0,18.6,80,61,39,30.35,29.99,10,3,20,0.00
2012-2-21,44.3,34.4,19.9,38.6,27.9,17.0,90,78,58,30.37,29.86,10,3,22,0.00
2012-2-22,56.8,46.8,38.0,42.6,37.3,33.0,91,72,44,29.86,29.48,8,2,17,0.00
2012-2-23,55.5,45.0,37.2,42.7,36.3,29.8,98,74,49,29.77,29.37,12,2,27,0.00
2012-2-24,41.7,37.1,33.1,40.1,35.3,29.5,99,94,62,29.76,29.33,8,2,21,0.98
2012-2-25,44.0,38.3,31.7,32.5,25.3,15.5,86,60,46,30.00,29.39,31,7,31,0.00
2012-2-26,41.9,32.5,24.4,21.5,19.3,16.5,85,59,42,30.45,30.00,14,4,23,0.00
2012-2-27,54.8,37.7,21.0,39.5,30.5,18.8,95,77,48,30.44,30.07,12,2,21,0.00
2012-2-28,48.6,41.6,32.3,33.5,27.2,24.6,76,57,47,30.39,30.12,17,5,24,0.00
2012-2-29,39.1,35.4,31.5,37.1,29.4,22.6,97,79,63,30.38,29.77,8,2,22,0.22
2012-3-1,38.8,37.3,34.1,37.8,35.8,30.6,97,95,87,29.98,29.66,6,1,18,0.07
2012-3-2,38.9,34.5,30.8,36.6,31.5,27.1,96,89,85,30.14,29.81,7,3,16,0.09
2012-3-3,56.0,46.6,37.4,48.6,38.3,25.9,99,78,35,29.82,29.43,8,2,20,0.12
2012-3-4,44.4,39.3,33.4,27.6,25.2,22.1,72,57,45,29.74,29.56,8,2,18,0.00
2012-3-5,41.8,33.4,26.1,22.8,16.7,7.2,67,51,33,30.38,29.74,8,4,18,0.00
2012-3-6,42.5,31.7,22.7,27.4,17.3,7.4,90,57,36,30.62,30.38,7,2,15,0.00
2012-3-7,60.3,45.4,28.3,46.3,34.8,24.6,89,68,43,30.58,30.30,8,3,17,0.00
2012-3-8,70.1,60.2,51.3,54.7,50.9,46.0,87,72,56,30.30,29.80,14,6,28,0.00
2012-3-9,62.6,42.3,33.4,52.7,29.9,22.5,91,63,43,30.26,29.78,14,5,35,0.07
2012-3-10,41.8,32.5,25.7,22.9,18.4,13.3,83,57,42,30.53,30.26,9,3,20,0.00
2012-3-11,60.3,42.7,24.8,35.0,28.1,20.5,88,59,38,30.53,30.30,9,2,20,0.00
2012-3-12,71.2,53.1,33.4,44.9,38.1,29.9,89,60,31,30.34,30.12,7,1,14,0.00
2012-3-13,72.7,59.0,49.6,60.5,53.1,44.2,98,82,60,30.12,29.88,9,2,17,0.10
2012-3-14,68.3,56.2,42.8,53.2,40.4,29.6,94,61,27,30.20,29.94,13,2,18,0.00
2012-3-15,50.4,44.1,41.3,43.4,41.3,40.1,96,90,77,30.33,30.20,7,3,13,0.00
2012-3-16,48.3,43.3,40.1,46.9,42.3,39.6,98,96,92,30.31,30.11,5,1,9,0.02
2012-3-17,62.6,48.4,35.2,52.1,44.3,35.0,100,87,66,30.37,30.18,7,1,13,0.00
2012-3-18,65.9,51.0,41.9,55.4,47.5,40.4,97,89,69,30.37,30.18,6,1,9,0.00
2012-3-19,76.9,56.2,39.5,62.4,50.0,39.0,100,82,60,30.22,30.13,7,2,13,0.00
2012-3-20,73.6,58.8,44.4,63.3,54.3,43.4,99,86,65,30.32,30.22,7,1,14,0.00
2012-3-21,67.9,60.7,55.8,62.5,58.8,54.8,100,94,81,30.36,30.26,7,1,12,0.00
2012-3-22,77.7,63.2,55.9,64.6,59.1,55.2,100,88,61,30.28,30.05,6,1,14,0.00
2012-3-23,73.6,60.9,50.1,61.3,54.2,46.0,100,80,56,30.09,30.02,8,1,13,0.00
2012-3-24,62.7,55.1,49.3,47.6,37.8,32.4,90,55,37,30.09,29.99,9,3,18,0.00
2012-3-25,53.0,46.2,42.4,46.0,42.2,35.1,95,86,61,29.99,29.72,5,1,10,0.10
2012-3-26,53.4,42.1,33.2,46.3,31.7,11.8,100,72,32,30.10,29.67,14,4,30,0.00
2012-3-27,49.9,37.3,28.0,25.1,12.3,7.7,67,37,19,30.27,30.10,10,4,22,0.00
2012-3-28,65.0,49.5,33.0,51.4,38.6,23.5,91,67,48,30.16,29.53,7,2,14,0.08
2012-3-29,57.3,50.5,42.7,50.4,39.3,31.3,87,65,55,30.00,29.56,10,5,24,0.00
2012-3-30,55.5,45.6,37.4,37.2,28.9,25.2,74,54,32,30.08,29.94,8,2,14,0.00
2012-3-31,44.9,40.3,38.0,39.6,37.9,36.1,97,91,74,30.00,29.87,9,2,15,0.26
2012-4-1,50.9,44.3,38.9,44.7,40.6,37.2,98,88,66,29.91,29.62,6,1,14,0.33
2012-4-2,55.3,45.4,35.8,44.3,33.7,23.8,98,68,35,29.86,29.60,12,4,25,0.02
2012-4-3,63.2,46.8,27.1,29.7,26.0,23.6,91,50,23,29.93,29.75,10,2,20,0.00
2012-4-4,66.1,55.0,39.3,37.8,33.5,28.0,78,46,30,29.76,29.51,14,4,24,0.00
2012-4-5,57.4,45.9,32.8,35.1,30.6,26.6,84,57,38,29.94,29.72,8,3,17,0.00
2012-4-6,57.5,43.9,27.8,31.6,26.9,24.1,87,54,31,30.03,29.88,8,2,18,0.00
2012-4-7,59.9,46.9,28.5,31.4,26.8,23.7,86,49,26,30.06,29.92,9,3,20,0.00
2012-4-8,65.3,52.9,35.0,37.6,30.4,25.5,73,44,27,30.01,29.64,10,3,21,0.00
2012-4-9,62.5,54.3,46.7,37.6,30.0,27.2,58,41,27,29.71,29.58,12,4,26,0.00
2012-4-10,58.8,49.8,37.6,39.3,34.0,27.3,76,55,40,29.78,29.64,9,2,20,0.00
2012-4-11,54.0,46.2,37.2,38.1,35.1,32.0,86,66,48,29.89,29.76,7,2,14,0.00
2012-4-12,58.6,49.4,38.1,40.3,36.8,32.9,89,64,40,30.12,29.89,9,3,20,0.01
2012-4-13,64.4,51.4,34.4,38.3,35.0,32.0,92,57,32,30.20,30.08,8,1,14,0.00
2012-4-14,72.0,55.0,34.4,50.7,38.2,32.3,93,58,27,30.21,30.00,8,1,13,0.00
2012-4-15,75.6,65.4,56.8,61.7,56.6,47.2,92,74,60,30.01,29.94,7,1,16,0.00
2012-4-16,87.8,68.1,51.6,66.0,58.8,51.1,100,75,42,30.00,29.88,8,2,15,0.00
2012-4-17,78.6,68.0,58.5,60.4,48.4,38.7,95,54,28,30.15,29.89,8,2,18,0.00
2012-4-18,59.7,54.5,46.1,42.9,37.4,32.7,71,53,43,30.25,30.11,7,2,13,0.00
2012-4-19,69.4,56.7,47.5,53.0,47.9,42.8,97,74,50,30.11,29.98,7,2,14,0.06
2012-4-20,70.8,57.7,42.5,58.1,49.9,42.0,100,78,57,30.03,29.86,8,2,17,0.00
2012-4-21,73.5,62.7,55.7,62.7,58.3,52.8,99,86,68,29.86,29.65,12,3,20,0.02
2012-4-22,55.7,47.5,44.8,52.1,45.6,43.4,99,93,79,29.78,29.33,8,3,18,1.80
2012-4-23,53.7,48.5,44.4,53.7,46.3,38.9,100,92,79,29.38,29.14,8,2,14,0.43
2012-4-24,58.1,48.7,39.9,39.1,36.0,32.3,92,64,38,29.70,29.37,8,3,22,0.01
2012-4-25,61.0,48.9,34.1,42.1,36.8,32.3,96,66,42,29.91,29.70,10,2,15,0.00
2012-4-26,60.4,47.6,32.6,54.2,44.0,31.6,100,88,69,29.92,29.58,8,1,13,0.01
2012-4-27,54.7,46.9,39.5,54.7,35.7,28.5,100,66,51,30.12,29.57,12,5,25,0.00
2012-4-28,60.3,47.9,35.6,38.5,31.4,28.1,77,55,33,30.23,30.07,9,2,15,0.00
2012-4-29,63.1,49.8,31.6,38.8,29.8,21.7,91,50,29,30.25,30.05,10,2,23,0.00
2012-4-30,61.9,48.2,30.6,43.3,32.8,25.8,89,59,33,30.35,30.20,8,2,14,0.00
2012-5-1,65.2,55.4,49.4,58.3,52.2,43.3,99,89,76,30.20,29.96,7,1,14,0.32
2012-5-2,52.8,51.0,49.2,52.0,49.0,46.8,97,93,88,30.19,30.08,5,1,12,0.03
2012-5-3,56.2,53.0,50.2,55.0,52.3,49.2,100,98,95,30.19,30.08,3,1,8,0.14
2012-5-4,75.3,60.9,52.2,67.7,59.0,52.2,100,94,76,30.11,29.84,6,1,10,0.37
2012-5-5,63.9,59.3,56.2,59.6,57.3,55.6,99,93,85,30.04,29.88,5,1,8,0.00
2012-5-6,66.0,58.3,47.7,56.5,53.1,45.5,99,84,66,30.11,30.02,6,1,12,0.00
2012-5-7,67.5,56.3,44.6,55.0,49.4,43.8,98,79,61,30.14,30.08,13,2,13,0.03
2012-5-8,64.3,57.6,52.3,57.6,53.5,47.5,99,86,76,30.09,29.83,8,3,23,0.10
2012-5-9,68.2,61.7,56.9,66.0,61.1,56.6,100,98,91,29.84,29.57,3,0,9,0.65
2012-5-10,64.1,56.1,46.6,57.5,49.5,40.8,100,80,52,29.81,29.47,8,2,21,0.34
2012-5-11,69.6,57.2,45.4,45.6,40.9,35.9,82,57,34,30.10,29.81,10,2,20,0.00
2012-5-12,79.4,60.2,38.9,54.2,45.6,37.7,97,65,30,30.21,30.10,5,1,12,0.00
2012-5-13,82.2,66.3,50.2,60.4,55.4,49.3,98,72,41,30.17,30.05,5,1,13,0.00
2012-5-14,71.3,64.4,61.6,64.9,62.0,59.5,99,92,76,30.13,30.07,6,0,13,0.11
2012-5-15,64.5,62.2,59.7,64.2,61.5,59.1,100,97,90,30.11,29.93,6,1,14,0.32
2012-5-16,77.6,66.8,61.4,71.3,64.9,59.6,100,94,78,29.94,29.79,5,1,12,0.02
2012-5-17,71.7,61.8,50.1,59.4,48.6,41.9,92,64,39,30.13,29.89,6,1,13,0.00
2012-5-18,72.6,58.6,43.7,54.1,47.9,42.9,99,71,46,30.23,30.13,6,1,12,0.00
2012-5-19,81.0,63.5,44.0,58.1,50.9,42.9,98,68,39,30.18,30.08,12,1,12,0.00
2012-5-20,79.9,65.7,49.9,60.0,48.7,37.7,99,60,24,30.24,30.15,9,2,15,0.00
2012-5-21,63.7,60.5,58.4,63.5,57.9,43.4,100,92,57,30.22,30.00,5,1,12,2.13
2012-5-22,70.8,64.4,59.6,67.6,63.8,59.6,100,98,85,30.00,29.79,5,0,8,0.12
2012-5-23,77.1,67.4,61.2,70.9,65.7,60.9,100,94,80,30.04,29.85,5,0,10,0.02
2012-5-24,68.8,64.6,60.4,66.5,63.8,60.4,100,97,92,30.19,30.04,5,1,12,0.17
2012-5-25,73.9,65.6,59.5,71.3,64.8,59.5,100,97,89,30.20,30.11,3,1,12,0.01
2012-5-26,87.3,72.3,67.3,77.8,70.4,67.3,100,94,71,30.13,30.04,6,1,15,1.22
2012-5-27,82.2,72.0,61.8,69.4,66.3,61.8,100,84,62,30.16,29.99,5,0,10,0.01
2012-5-28,89.9,76.7,64.9,78.0,71.5,64.9,100,85,64,30.00,29.87,5,1,12,0.00
2012-5-29,91.3,77.6,66.5,78.6,72.1,66.3,100,85,63,29.88,29.66,7,1,20,0.28
2012-5-30,77.6,71.0,63.8,71.5,67.2,62.7,100,89,63,29.75,29.68,5,0,14,0.01
2012-5-31,80.3,69.6,60.2,62.8,58.6,52.9,99,71,44,29.92,29.70,8,2,14,0.00
2012-6-1,72.2,63.3,54.0,61.4,56.3,50.2,95,78,65,30.00,29.80,8,3,21,0.02
2012-6-2,75.9,65.7,59.0,66.9,59.9,52.4,100,83,56,29.80,29.65,8,2,21,0.92
2012-6-3,76.2,62.3,49.6,60.7,55.3,48.8,99,79,50,29.75,29.61,8,1,17,0.02
2012-6-4,62.6,56.9,51.8,56.4,52.7,47.4,96,86,69,29.81,29.61,6,1,14,0.23
2012-6-5,64.8,56.7,48.0,55.7,51.4,46.5,96,83,67,29.94,29.80,7,1,14,0.00
2012-6-6,72.1,60.5,48.1,58.3,54.1,47.6,100,82,54,29.99,29.92,3,0,8,0.00
2012-6-7,78.3,65.7,54.3,62.1,57.4,52.9,100,78,42,29.97,29.88,6,0,10,0.02
2012-6-8,81.8,66.5,51.5,67.1,59.1,51.0,100,80,49,29.93,29.80,6,1,13,0.06
2012-6-9,76.0,65.2,58.0,67.9,62.2,57.4,100,91,69,29.97,29.83,3,0,10,0.01
2012-6-10,84.9,73.6,62.0,72.1,67.1,61.7,100,82,61,30.17,29.97,14,2,14,0.00
2012-6-11,77.5,68.5,62.5,66.0,62.1,58.8,97,81,54,30.24,30.15,7,2,20,0.16
2012-6-12,71.7,66.3,61.6,68.0,65.1,59.6,100,96,86,30.18,29.90,13,3,15,0.65
2012-6-13,72.3,66.5,62.0,67.1,64.7,61.4,100,94,79,30.05,29.86,6,1,14,0.31
2012-6-14,77.7,67.7,58.7,65.8,62.4,57.0,100,84,62,30.24,30.05,5,1,12,0.01
2012-6-15,79.8,68.5,58.6,64.1,58.9,55.0,99,74,49,30.29,30.23,6,1,12,0.00
2012-6-16,79.3,67.1,53.7,62.2,58.4,53.3,100,76,50,30.32,30.21,7,1,15,0.00
2012-6-17,72.9,64.0,54.6,62.8,58.6,52.9,94,83,64,30.24,30.08,5,1,12,0.00
2012-6-18,70.8,61.9,51.0,61.3,56.3,50.5,99,83,66,30.15,30.08,5,1,12,0.00
2012-6-19,77.9,67.9,57.5,69.9,63.8,55.6,97,87,74,30.16,30.06,6,1,10,0.00
2012-6-20,95.9,80.2,63.7,80.3,73.1,63.5,100,81,58,30.07,29.90,5,1,10,0.00
2012-6-21,96.0,83.4,70.8,77.6,74.2,70.5,100,77,51,29.92,29.75,6,1,13,0.00
2012-6-22,91.3,77.0,68.0,79.3,72.5,68.0,100,87,60,29.81,29.71,7,0,21,1.06
2012-6-23,85.3,75.4,63.6,70.1,64.5,59.3,100,72,47,29.97,29.80,13,2,13,0.03
2012-6-24,83.8,71.8,56.7,68.2,61.5,56.1,100,73,44,30.00,29.88,5,1,12,0.01
2012-6-25,73.0,66.0,57.1,70.1,64.9,56.8,100,96,82,29.88,29.65,7,1,16,0.69
2012-6-26,70.8,62.5,50.5,60.1,55.2,50.2,100,78,58,29.75,29.66,10,2,24,0.00
2012-6-27,83.1,70.9,61.4,60.5,56.5,53.1,86,62,40,29.81,29.69,7,1,18,0.00
2012-6-28,89.0,74.4,59.0,70.9,63.5,56.4,92,71,49,29.82,29.69,5,1,10,0.00
2012-6-29,94.6,79.3,66.1,79.8,72.3,65.0,100,81,53,29.71,29.59,5,1,12,0.17
2012-6-30,93.3,79.6,66.7,73.6,69.2,65.8,98,73,43,29.76,29.65,5,1,13,0.00
2012-7-1,93.7,77.7,64.7,77.6,69.8,64.1,99,78,54,29.84,29.74,5,0,10,0.02
2012-7-2,87.1,74.2,60.6,68.2,64.0,59.5,96,73,49,29.91,29.84,5,1,10,0.00
2012-7-3,89.6,75.4,59.5,72.9,65.4,58.9,99,74,45,29.94,29.81,5,1,12,0.00
2012-7-4,92.8,79.4,70.0,76.8,73.2,69.1,99,82,59,29.83,29.68,6,1,13,0.07
2012-7-5,92.8,81.3,69.5,76.2,72.3,67.1,98,76,50,29.85,29.69,7,1,13,0.00
2012-7-6,92.3,78.1,64.4,72.3,68.5,64.1,100,75,41,29.92,29.82,3,0,9,0.00
2012-7-7,92.0,79.0,69.0,77.2,72.3,68.1,97,81,59,29.86,29.75,7,1,20,0.01
2012-7-8,91.1,80.4,69.4,72.2,69.3,64.0,94,71,44,29.86,29.77,5,1,9,0.00
2012-7-9,87.5,75.4,64.1,66.4,63.0,60.2,88,67,45,29.96,29.85,3,1,9,0.00
2012-7-10,86.2,74.5,61.3,68.2,62.5,57.5,96,69,44,30.08,29.96,6,1,12,0.01
2012-7-11,85.3,75.0,66.6,72.2,68.0,65.4,100,80,59,30.17,30.06,8,1,13,0.03
2012-7-12,90.4,75.6,63.9,71.1,65.7,60.7,100,74,45,30.19,30.11,8,1,13,0.00
2012-7-13,87.0,76.2,65.4,74.3,68.6,63.6,95,78,62,30.18,30.12,3,0,10,0.00
2012-7-14,87.3,77.4,68.1,73.0,69.0,66.2,99,77,55,30.18,30.10,6,1,13,0.00
2012-7-15,86.8,75.7,70.0,78.0,72.2,67.1,100,89,73,30.14,29.90,6,1,15,0.25
2012-7-16,91.1,79.4,70.6,75.8,73.0,70.3,100,83,56,29.91,29.76,6,1,12,0.00
2012-7-17,96.3,82.4,66.5,74.2,71.0,65.9,99,72,47,29.82,29.70,8,1,15,0.00
2012-7-18,99.8,82.0,73.7,80.7,75.6,72.3,100,83,49,29.87,29.73,8,1,12,0.34
2012-7-19,76.1,72.4,68.7,73.5,67.0,62.2,100,84,66,29.99,29.85,3,0,10,0.00
2012-7-20,68.8,64.9,61.5,66.8,63.6,60.9,99,96,88,30.05,29.93,3,1,12,0.69
2012-7-21,78.8,69.1,60.5,65.8,61.9,58.2,100,80,52,30.11,30.03,6,1,10,0.00
2012-7-22,84.9,71.5,59.0,68.1,63.7,58.7,100,79,55,30.15,30.08,6,1,12,0.00
2012-7-23,84.2,74.1,64.9,77.7,71.3,63.7,100,91,79,30.11,29.78,11,1,13,0.19
2012-7-24,90.1,79.7,68.3,78.5,70.8,63.8,100,76,57,29.78,29.57,12,2,17,0.00
2012-7-25,85.6,73.0,58.7,66.7,60.3,54.8,90,66,46,29.88,29.72,6,2,15,0.00
2012-7-26,90.0,74.2,66.9,78.2,69.8,63.4,99,87,66,29.78,29.59,13,1,20,0.53
2012-7-27,88.9,77.9,70.4,77.3,73.1,70.4,100,86,63,29.85,29.65,3,1,13,0.00
2012-7-28,76.9,73.4,69.2,73.7,72.0,68.6,99,96,86,29.91,29.84,6,1,16,0.49
2012-7-29,79.6,71.7,65.7,73.9,69.3,65.7,100,93,78,30.05,29.88,3,0,7,0.15
2012-7-30,81.6,72.7,65.9,71.7,68.4,64.6,100,87,69,30.11,30.04,12,1,12,0.00
2012-7-31,80.4,71.0,63.3,70.9,67.2,63.0,100,89,70,30.09,29.90,8,1,12,0.00
2012-8-1,80.7,72.3,65.8,74.7,70.7,65.2,100,95,79,29.92,29.83,6,0,12,0.26
2012-8-2,89.8,77.9,66.4,76.1,71.8,66.4,100,84,55,29.90,29.82,5,0,9,0.00
2012-8-3,92.5,79.5,68.2,78.2,74.0,68.2,100,85,56,30.08,29.90,6,1,12,0.00
2012-8-4,90.5,80.0,70.0,79.3,74.5,70.0,100,85,57,30.18,30.08,7,1,16,0.00
2012-8-5,92.4,80.3,73.0,80.8,76.3,72.3,99,89,63,30.18,29.92,7,2,20,0.34
2012-8-6,84.9,76.4,63.8,75.0,69.1,61.7,100,80,54,30.00,29.94,9,1,16,0.00
2012-8-7,84.5,72.1,59.4,68.5,64.3,59.1,100,79,52,30.01,29.93,9,1,10,0.00
2012-8-8,89.0,75.5,63.1,75.3,69.4,62.8,100,83,48,29.98,29.91,6,1,12,0.00
2012-8-9,88.8,78.0,68.7,76.9,72.7,68.6,100,85,61,29.94,29.85,6,1,13,0.00
2012-8-10,80.6,75.3,71.6,77.4,74.1,70.9,100,96,88,29.89,29.74,6,1,14,0.42
2012-8-11,86.4,77.1,69.9,79.0,73.8,69.9,100,90,71,29.89,29.78,8,1,17,0.02
2012-8-12,86.6,77.6,68.7,73.1,68.7,64.8,97,76,52,29.93,29.85,6,1,17,0.00
2012-8-13,85.9,74.0,62.3,68.7,65.1,61.4,98,76,51,29.98,29.91,6,1,13,0.00
2012-8-14,81.0,71.2,61.4,73.8,67.8,61.1,100,90,75,29.96,29.87,8,0,13,0.00
2012-8-15,83.7,73.4,66.4,75.4,70.9,66.4,100,93,72,29.89,29.81,5,1,10,0.25
2012-8-16,84.8,72.6,63.8,70.6,66.2,62.9,100,83,53,29.90,29.83,7,1,12,0.00
2012-8-17,89.6,74.4,59.3,72.6,66.5,59.0,100,79,51,29.88,29.74,10,1,17,0.01
2012-8-18,80.2,69.0,59.6,68.9,63.7,58.5,100,85,55,29.92,29.83,8,1,12,0.56
2012-8-19,74.3,64.9,54.9,62.6,59.0,54.6,100,83,58,29.98,29.91,2,0,7,0.00
2012-8-20,79.6,69.3,57.4,67.2,62.4,56.9,100,80,60,29.93,29.82,3,0,8,0.00
2012-8-21,81.7,70.5,61.3,66.4,63.1,60.2,98,79,52,30.08,29.91,6,0,9,0.00
2012-8-22,85.2,71.0,59.2,69.1,63.8,59.0,100,81,49,30.14,30.08,8,1,13,0.00
2012-8-23,87.1,72.3,60.0,70.5,65.3,59.8,100,81,48,30.15,30.08,5,0,10,0.00
2012-8-24,86.9,73.5,62.3,69.8,65.4,62.0,100,78,49,30.17,30.10,5,0,8,0.00
2012-8-25,84.7,72.9,63.3,73.1,66.5,60.2,100,82,58,30.27,30.17,6,1,12,0.00
2012-8-26,83.4,71.4,61.9,69.0,64.7,58.8,100,81,45,30.32,30.21,6,1,12,0.00
2012-8-27,81.7,73.6,62.7,74.4,70.1,62.2,100,89,74,30.22,29.97,12,3,12,0.06
2012-8-28,86.0,77.3,66.3,74.4,70.0,61.9,100,80,52,29.93,29.78,7,2,17,0.05
2012-8-29,78.5,67.5,57.8,61.8,57.7,54.5,97,73,48,30.01,29.88,9,1,15,0.00
2012-8-30,82.4,66.6,51.7,60.2,56.3,51.4,100,74,38,30.09,30.01,6,1,12,0.00
2012-8-31,92.2,74.5,55.3,67.5,62.3,54.7,100,70,36,30.04,29.87,7,1,14,0.00
2012-9-1,90.4,77.9,65.6,72.7,67.9,63.8,95,73,43,30.06,29.89,6,1,15,0.00
2012-9-2,83.0,74.3,66.4,71.7,69.3,65.2,99,85,64,30.08,29.99,6,0,12,0.09
2012-9-3,75.6,70.5,67.0,71.1,67.2,63.6,99,89,75,30.16,30.07,5,1,12,0.01
2012-9-4,80.3,73.7,68.9,76.2,72.0,67.0,100,94,85,30.10,29.82,6,1,14,0.16
2012-9-5,82.8,75.9,68.9,76.3,73.5,68.3,100,93,74,29.82,29.75,6,1,12,0.38
2012-9-6,81.6,71.9,64.9,72.8,68.8,64.6,100,91,72,29.90,29.81,5,0,7,0.00
2012-9-7,88.6,74.8,64.9,76.5,70.8,64.9,100,89,66,29.92,29.81,6,1,12,0.00
2012-9-8,82.0,71.2,62.6,77.7,70.2,62.6,100,97,86,29.85,29.54,13,2,35,1.59
2012-9-9,77.3,66.5,59.6,63.1,61.1,57.4,100,85,53,29.88,29.75,7,1,17,0.02
2012-9-10,72.8,61.6,53.9,58.5,53.4,47.4,99,77,49,30.14,29.88,10,2,21,0.00
2012-9-11,71.5,57.0,43.9,55.4,49.5,43.2,99,78,50,30.27,30.13,6,1,13,0.00
2012-9-12,80.0,62.9,47.9,61.6,54.9,47.7,100,79,44,30.35,30.27,5,0,9,0.00
2012-9-13,82.5,65.6,51.4,64.3,58.9,51.1,100,82,50,30.36,30.26,5,1,13,0.00
2012-9-14,81.1,66.3,53.5,65.4,60.5,53.2,100,84,57,30.28,30.07,6,1,13,0.00
2012-9-15,73.3,63.8,52.2,62.1,56.1,49.9,100,78,54,30.11,30.03,12,2,17,0.03
2012-9-16,73.2,59.4,48.1,57.9,52.3,47.3,99,80,51,30.12,30.02,6,1,12,0.00
2012-9-17,78.7,61.2,46.2,60.9,53.8,45.9,100,80,50,30.10,30.01,5,1,12,0.00
2012-9-18,75.0,68.2,56.1,72.1,67.0,54.1,100,96,90,30.03,29.61,13,4,34,1.74
2012-9-19,69.5,61.9,50.9,67.5,53.4,48.2,100,76,48,30.17,29.72,7,2,17,0.01
2012-9-20,67.7,58.2,46.2,60.3,53.7,44.8,96,85,74,30.21,30.11,5,1,12,0.00
2012-9-21,72.7,61.5,52.7,62.2,56.8,51.9,99,86,61,30.12,30.01,8,1,12,0.00
2012-9-22,73.6,63.0,50.5,69.2,60.9,50.2,100,93,80,30.00,29.77,8,2,16,0.24
2012-9-23,67.6,58.7,46.7,61.3,52.0,45.6,100,81,51,30.11,29.83,8,2,16,0.00
2012-9-24,65.9,53.1,43.7,50.1,46.3,43.2,99,80,48,30.16,30.08,6,1,13,0.00
2012-9-25,72.5,56.7,40.3,57.9,49.3,39.8,100,79,49,30.19,30.11,7,1,16,0.00
2012-9-26,73.9,65.4,57.8,66.8,61.8,55.5,99,89,76,30.14,30.00,5,0,10,0.02
2012-9-27,75.3,66.6,61.7,65.8,62.0,54.3,100,86,67,30.17,30.03,5,0,12,0.03
2012-9-28,68.8,62.5,59.0,66.7,61.1,53.6,99,95,72,30.16,29.93,6,1,15,0.51
2012-9-29,63.5,58.9,56.1,58.7,56.8,55.3,98,93,82,29.94,29.86,3,0,9,0.00
2012-9-30,67.5,58.4,53.9,57.1,53.7,49.2,99,85,63,29.88,29.75,7,1,15,0.00
2012-10-1,69.7,57.6,47.6,57.4,51.9,46.3,98,82,62,29.97,29.80,6,1,14,0.00
2012-10-2,66.7,60.0,54.1,62.3,58.9,53.5,100,96,80,30.03,29.96,5,0,7,0.57
2012-10-3,68.3,65.2,60.7,68.3,65.2,60.7,100,100,100,30.10,29.98,3,0,6,0.35
2012-10-4,70.4,67.4,63.1,70.4,67.4,63.1,100,100,98,30.12,30.01,4,0,7,1.24
2012-10-5,78.0,65.5,58.8,65.9,62.2,58.7,100,90,62,30.05,29.92,3,0,9,0.00
2012-10-6,75.1,60.9,52.3,65.8,56.3,45.9,100,86,71,29.97,29.74,9,2,18,0.00
2012-10-7,53.7,49.1,41.7,48.6,44.8,40.1,96,86,71,30.11,29.97,2,0,9,0.12
2012-10-8,53.9,47.3,39.0,48.1,44.4,38.6,100,90,73,30.28,30.10,3,0,7,0.00
2012-10-9,58.7,53.2,46.9,53.7,50.2,45.8,97,90,82,30.24,30.08,5,1,8,0.00
2012-10-10,67.0,56.7,51.2,59.6,53.1,43.4,100,88,65,30.08,29.77,9,1,18,0.26
2012-10-11,59.0,49.5,40.9,43.6,40.3,37.7,94,72,48,30.18,29.94,8,2,23,0.00
2012-10-12,54.9,43.9,35.0,47.3,38.6,30.7,99,83,58,30.43,30.06,10,1,17,0.00
2012-10-13,53.6,40.5,27.7,40.0,32.0,26.7,98,75,42,30.52,30.31,6,1,10,0.00
2012-10-14,70.1,57.5,42.9,58.9,51.9,41.3,96,82,65,30.30,29.94,9,2,18,0.00
2012-10-15,70.3,61.8,52.8,64.1,59.7,52.2,100,93,80,29.93,29.62,8,1,16,0.20
2012-10-16,58.9,52.2,39.7,57.8,43.9,38.1,99,74,57,29.92,29.64,9,3,22,0.00
2012-10-17,59.0,45.6,34.4,48.8,41.2,33.9,99,86,62,30.02,29.92,5,0,8,0.00
2012-10-18,65.6,51.5,36.1,57.3,47.8,35.6,100,88,66,30.06,29.96,8,1,14,0.00
2012-10-19,65.2,63.2,59.5,65.2,62.8,56.7,100,99,89,29.95,29.66,8,2,18,1.35
2012-10-20,71.0,61.0,51.0,64.6,54.9,43.8,100,82,51,29.81,29.64,5,1,13,0.00
2012-10-21,64.4,55.1,46.4,48.9,45.1,43.0,88,70,52,30.00,29.81,7,2,18,0.00
2012-10-22,66.4,55.4,46.7,51.5,46.7,43.3,92,73,55,30.09,29.99,7,1,17,0.00
2012-10-23,60.6,52.9,45.0,54.9,50.2,43.7,99,91,69,30.13,30.05,2,0,5,0.10
2012-10-24,56.3,54.6,53.1,55.6,53.8,51.9,100,97,93,30.20,30.09,5,0,7,0.00
2012-10-25,60.4,56.0,52.3,55.2,53.4,51.8,98,91,79,30.28,30.20,3,0,7,0.00
2012-10-26,63.9,58.5,51.9,59.4,56.5,50.9,99,93,84,30.24,30.11,1,0,5,0.01
2012-10-27,64.5,59.8,55.5,59.0,57.0,54.1,98,91,76,30.11,29.92,5,0,12,0.00
2012-10-28,58.6,56.1,53.8,55.0,50.4,45.7,94,81,72,29.92,29.68,14,3,18,0.00
2012-10-29,62.7,55.7,52.4,61.3,53.4,48.7,99,92,84,29.68,28.65,26,7,46,0.32
2012-11-1,51.7,49.7,46.9,43.6,42.5,41.5,82,76,72,29.60,29.54,10,2,13,0.01
2012-11-2,52.9,47.2,42.6,42.3,39.3,35.3,85,75,57,29.73,29.59,17,2,19,0.00
2012-11-3,51.1,43.8,39.8,36.9,35.1,32.8,83,72,56,29.91,29.74,14,4,24,0.00
2012-11-4,52.0,43.0,35.9,39.2,34.9,32.4,87,73,57,29.98,29.89,10,2,14,0.00
2012-11-5,43.8,37.6,26.2,33.6,28.3,23.1,88,69,58,30.19,29.97,7,2,16,0.00
2012-11-6,43.4,31.2,21.2,26.0,23.3,19.5,95,74,48,30.25,30.10,5,1,10,0.01
2012-11-7,40.3,33.7,30.3,33.6,29.4,22.4,98,85,65,30.10,29.78,17,4,23,0.77
2012-11-8,45.2,37.6,30.6,32.1,29.6,27.7,98,74,58,29.90,29.74,10,4,22,0.09
2012-11-9,52.6,41.3,30.7,35.8,30.5,25.1,93,67,43,30.20,29.91,8,2,15,0.00
2012-11-10,51.5,41.6,30.1,43.8,38.0,29.1,98,88,71,30.43,30.19,2,0,5,0.00
2012-11-11,64.8,47.8,35.5,54.7,44.9,34.7,100,91,68,30.50,30.41,6,1,12,0.00
2012-11-12,65.0,53.4,38.3,59.7,51.9,37.8,100,95,82,30.48,30.19,9,3,20,0.00
2012-11-13,60.3,46.7,36.4,59.4,44.1,29.9,98,91,77,30.45,30.11,8,2,18,0.16
2012-11-14,48.2,37.6,28.7,35.2,29.8,25.8,92,74,58,30.53,30.44,7,1,14,0.00
2012-11-15,44.8,34.7,27.3,33.0,28.6,24.5,93,79,58,30.48,30.31,5,1,12,0.00
2012-11-16,45.9,36.6,29.1,32.8,29.3,26.1,93,76,57,30.45,30.30,6,1,12,0.00
2012-11-17,52.8,38.5,28.1,38.3,31.5,25.1,94,77,56,30.65,30.44,5,1,12,0.00
2012-11-18,50.2,36.3,25.9,38.3,31.8,24.7,97,85,60,30.69,30.58,7,1,12,0.00
2012-11-19,49.9,36.5,28.4,40.9,32.8,27.2,96,87,70,30.58,30.26,5,0,8,0.00
2012-11-20,51.5,36.4,26.5,38.4,32.0,25.7,98,85,54,30.26,30.12,3,0,7,0.00
2012-11-21,55.3,38.8,28.7,38.2,31.5,26.9,97,78,42,30.25,30.15,5,0,9,0.00
2012-11-22,56.0,38.4,27.5,45.6,34.6,26.1,98,87,67,30.28,30.14,3,0,9,0.00
2012-11-23,57.0,42.1,28.1,46.5,39.0,27.4,100,90,59,30.14,29.67,7,1,12,0.03
2012-11-24,47.0,40.0,34.4,45.1,28.2,21.9,98,63,52,29.82,29.65,13,4,31,0.00
2012-11-25,40.4,35.6,32.3,28.0,24.4,20.3,72,63,56,29.95,29.81,12,3,26,0.00
2012-11-26,47.2,37.2,25.7,29.5,26.4,22.3,88,66,47,30.26,29.94,9,2,16,0.00
2012-11-27,35.2,33.7,26.9,34.2,31.8,23.8,97,93,79,30.31,30.21,4,0,7,0.31
2012-11-28,41.4,34.0,25.7,34.0,28.6,23.2,96,81,63,30.27,30.17,8,1,16,0.00
2012-11-29,43.8,32.8,21.2,31.0,26.3,19.8,96,78,54,30.35,30.25,6,1,14,0.00
2012-11-30,45.0,35.5,25.3,36.0,29.8,23.8,95,80,61,30.48,30.31,6,1,12,0.00
2012-12-1,38.9,36.4,33.4,37.8,32.5,27.6,96,86,77,30.55,30.43,5,2,10,0.00
2012-12-2,50.1,43.0,37.1,47.1,42.0,36.3,100,97,86,30.43,30.11,7,1,10,0.16
2012-12-3,59.3,46.2,35.6,52.3,43.6,34.8,100,91,70,30.27,30.09,7,1,13,0.00
2012-12-4,59.4,48.4,34.4,57.0,47.8,33.9,100,98,88,30.28,29.98,6,1,10,0.06
2012-12-5,53.2,46.7,34.0,53.2,39.0,24.2,100,76,57,30.21,29.90,10,4,24,0.02
2012-12-6,38.5,30.5,22.7,25.6,21.7,18.6,90,70,52,30.36,30.20,6,1,14,0.00
2012-12-7,39.9,32.3,22.0,39.6,31.1,20.2,99,95,91,30.29,30.03,1,0,3,0.20
2012-12-8,48.6,44.7,39.9,48.6,44.5,39.6,100,99,98,30.03,29.86,3,0,6,0.01
2012-12-9,47.0,42.5,40.7,47.0,40.8,35.7,100,94,80,30.26,29.99,7,1,14,0.26
2012-12-10,57.1,51.1,43.1,57.1,51.0,42.6,100,100,98,30.02,29.54,3,0,9,0.02
2012-12-11,53.5,43.6,37.9,53.5,37.4,30.0,100,79,62,30.19,29.56,8,2,17,0.02
2012-12-12,42.3,34.7,27.9,31.7,28.5,25.7,94,79,60,30.45,30.19,6,1,9,0.00
2012-12-13,45.4,32.7,25.4,32.8,27.7,23.7,96,83,58,30.49,30.33,5,0,8,0.00
2012-12-14,48.3,34.1,21.8,32.4,27.2,20.6,98,78,51,30.32,30.13,6,1,12,0.00
2012-12-15,46.7,33.7,24.0,35.4,29.5,22.8,97,86,62,30.33,30.22,3,0,7,0.00
2012-12-16,42.1,40.6,39.3,40.8,38.8,35.8,97,93,86,30.22,29.93,9,4,22,0.19
2012-12-17,44.4,40.7,38.5,44.3,40.2,37.7,100,98,97,29.93,29.64,7,1,12,0.30
2012-12-18,53.2,46.5,42.8,50.3,44.6,37.1,100,93,80,29.63,29.44,8,2,22,0.62
2012-12-19,47.4,41.6,31.1,36.6,32.0,26.8,86,69,57,30.11,29.58,12,4,23,0.00
2012-12-20,43.1,34.9,24.7,41.2,30.7,23.4,96,85,64,30.21,29.84,8,2,20,0.04
2012-12-21,55.8,44.2,36.6,55.5,40.7,31.0,100,88,76,29.84,29.08,16,7,35,1.87
2012-12-22,36.9,35.3,33.9,33.0,27.3,23.1,93,73,61,29.78,29.31,14,5,29,0.00
2012-12-23,41.8,36.0,27.9,30.1,25.8,23.1,83,67,55,29.95,29.79,9,2,22,0.00
2012-12-24,37.9,32.0,22.5,31.8,25.8,20.4,95,79,62,30.09,29.94,6,0,12,0.09
2012-12-25,38.6,34.0,29.1,34.3,31.3,25.2,97,90,81,30.26,29.92,7,2,14,0.04
2012-12-26,35.9,30.1,24.9,34.6,26.3,21.4,96,86,70,30.30,29.56,15,4,31,0.64
2012-12-27,37.5,34.4,28.8,36.7,32.2,22.8,97,92,78,29.81,29.30,14,5,27,0.35
2012-12-28,36.8,31.3,26.1,28.3,25.3,22.1,89,78,70,30.08,29.81,12,3,25,0.00
2012-12-29,33.2,29.9,24.6,31.7,27.7,22.4,96,92,85,30.06,29.50,3,1,10,0.20
2012-12-30,33.2,29.4,26.5,28.1,21.1,17.3,94,71,56,30.14,29.57,13,6,33,0.00
2012-12-31,38.2,32.3,25.1,27.0,23.4,18.2,76,70,62,30.17,29.87,8,2,14,0.00
2013-1-1,37.9,34.5,24.0,31.1,25.6,13.6,79,70,60,30.00,29.83,9,3,20,0.00